sat.trackr.live / text

‹ back to catalog

STARLINK-32402

NORAD 61708 · 2024-196B

PAYLOAD ACTIVE UNKNOWN

§ Identity

Operator
Country
US
Launch date
2024-10-30
Launch site
AFETR
Launch vehicle
Mass (kg)
RCS (m²)

Purposes: comms

External: N2YO · Heavens-Above · Gunter

§ Orbital elements

Epoch: 2026-09-20T05:24:42.539904Z

Period
93.85 min
Inclination
53.1597°
Eccentricity
0.0001446
Mean motion
15.34388710 rev/d
Perigee alt
461.7 km
Apogee alt
463.7 km
Semi-major
6,840.9 km
B*
1.1969e-5
RAAN
274.7198°
Arg perigee
85.1064°
Mean anomaly
275.0103°
Rev number
10,698

§ Raw data

STARLINK-324021 61708U 24196B   26263.22549236  .00000028  00000+0  11969-4 0  99952 61708  53.1597 274.7198 0001446  85.1064 275.0103 15.34388710106983

JSON: /api/v1/satellites/61708 · /tle

For live sub-satellite position, see the globe view (requires WebGL).

§ Visibility from observer

Set your observer location to see the next 7 days of passes ≥ 10°. The values pass through the URL so the page stays shareable.

No JS? Fill the form by hand. The geolocation button needs JavaScript.